This is the latest recevied weather packets stored in our database for station/object KD2VWU. If no packets are shown the sender has not sent any weather packets the latest 10 day(s).
| Time | Temp. | Humidity | Pressure | Rain* | Wind** | Luminosity | Snow |
|---|---|---|---|---|---|---|---|
| 1778014146 | 25.56° C | 50% | 1004.3 hPa | 0 mm | - | - | - |
| 1778013844 | 25.56° C | 52% | 1004 hPa | 0 mm | - | - | - |
| 1778013541 | 25° C | 51% | 1004.3 hPa | 0 mm | - | - | - |
| 1778013237 | 25.56° C | 49% | 1004.5 hPa | 0 mm | - | - | - |
| 1778012933 | 26.11° C | 50% | 1004.5 hPa | 0 mm | - | - | - |
| 1778012630 | 26.67° C | 48% | 1004.5 hPa | 0 mm | - | - | - |
| 1778012326 | 26.11° C | 48% | 1004.4 hPa | 0 mm | - | - | - |
| 1778012024 | 26.67° C | 48% | 1004.6 hPa | 0 mm | - | - | - |
| 1778011722 | 26.11° C | 48% | 1004.7 hPa | 0 mm | - | - | - |
| 1778011419 | 26.11° C | 48% | 1004.4 hPa | 0 mm | - | - | - |
| 1778011114 | 26.11° C | 50% | 1004.5 hPa | 0 mm | - | - | - |
| 1778010811 | 26.11° C | 51% | 1004.6 hPa | 0 mm | - | - | - |
| 1778010508 | 26.67° C | 47% | 1004.6 hPa | 0 mm | - | - | - |
| 1778010206 | 27.22° C | 46% | 1004.8 hPa | 0 mm | - | - | - |
| 1778009901 | 26.67° C | 48% | 1004.7 hPa | 0 mm | - | - | - |
| 1778009599 | 26.67° C | 50% | 1004.8 hPa | 0 mm | - | - | - |
| 1778009297 | 26.67° C | 49% | 1005 hPa | 0 mm | - | - | - |
| 1778008995 | 26.11° C | 49% | 1004.7 hPa | 0 mm | - | - | - |
| 1778008692 | 26.67° C | 47% | 1005 hPa | 0 mm | - | - | - |
| 1778008390 | 27.22° C | 46% | 1004.9 hPa | 0 mm | - | - | - |
| 1778008087 | 26.67° C | 46% | 1004.7 hPa | 0 mm | - | - | - |
| 1778007782 | 26.67° C | 45% | 1005 hPa | 0 mm | - | - | - |
| 1778007478 | 26.67° C | 47% | 1005.1 hPa | 0 mm | - | - | - |
| 1778007175 | 26.67° C | 47% | 1005.5 hPa | 0 mm | - | - | - |
| 1778006871 | 26.67° C | 46% | 1005.3 hPa | 0 mm | - | - | - |
* Rain latest hour (hover to see other rain measurements)
** Current wind speed in m/s (hover to see current wind gust speed)